SCP
-0 -0 -0 -0 0 0 0 0 0 0 0 0 0 0 0 0 0 0 0 0 0 0 0 0 0 0 0 0 0 0 0 0 0 0 0 0 0 0 0 0 0 0 0
-0 -0 0 0 0 0 0 0 0 0 0 0 0 0 0 0 0 0 0 0 0 0 0 0 0 0 0 0 0 0 0 0 0 0 0 0 0 0 0 0 0 0 0
0 0 0 0 0 0 0 0 0 0 0 0 0 0 0 0 0 0 0 0 0 0 0 0 0 0 0 0 0 0 0 0 0 0 0 0 0 0 0 0 0 0 0
0 0 0 0 0 0 0 0 0 0 0 0 0 0 0 0 0 0 0 0 0 0 0 0 0 0 0 0 0 0 0 0 0 0 0 0 0 0 0 0 0 0 0
0 0 0 0 0 0 0 0 0 0 0 0 0 0 0 0 0 0 0 0 0 0 0 0 0 0 0 0 0 0 0 0 0 0 0 0 0 0 0 0 0 0 0
0 0 0 0 0 0 0 0 0 0 0 0 0 0 0 0 0 0 0 0 0 0 0 0 0 0 0 0 0 0 0 0 0 0 0 0 0 0 0 0 0 0 0
0 0 0 0 0 0 0 0 0 0 0 0 0 0 0 0 0 0 0 0 0 0 0 0 0 0 0 0 0 0 0 0 0 0 0 0 0 0 0 0 0 0 0
0 0 0 0 0 0 0 0 0 0 0 0 0 0 0 0 0 0 0 0 0 0 0 0 0 0 0 0 0 0 0 0 0 0 0 0 0 0 0 0 0 0 0
0 0 0 0 0 0 -0 0 0 0 0 0 0 0 0 0 0 0 0 0 0 0 0 0 0 0 0 0 0 0 0 0 0 0 0 0 0 0 0 0 0 0 0
0 0 0 0 0 0 0 0 0 0 0 0 0 0 0 0 0 0 0 0 0 0 0 0 0 0 0 0 0 0 0 0 0 0 0 0 0 0 0 0 0 0 0
0 0 0 0 0 0 0 0 0 0 0 0 0 0 0 0 0 0 0 0 0 0 0 0 0 0 0 0 0 0 0 0 0 0 0 0 0 0 0 0 0 0 0
0 0 0 0 0 0 0 0 0 0 0 0 0 0 0 0 0 0 0 0 0 0 0 0 0 0 0 0 0 0 0 0 0 0 0 0 0 0 0 0 0 0 0
0 0 0 0 0 0 0 0 0 0 0 0 0 0 0 0 0 0 0 0 0 0 0 0 0 0 0 0 0 0 0 0 0 0 0 0 0 0 0 0 0 0 0
0 0 0 0 0 0 0 0 0 0 0 0 0 0 0 0 0 0 0 0 0 0 0 0 0 0 0 0 0 0 0 0 0 0 0 0 0 0 0 0 0 0 0
0 0 0 0 0 0 0 0 0 0 0 0 -0 0 0 0 0 0 0 0 0 0 0 0 0 0 0 0 0 0 0 0 0 0 0 0 0 0 0 0 0 0 0
0 0 0 0 0 0 0 0 0 0 0 0 0 0 0 0 0 0 0 0 0 0 0 0 0 0 0 0 0 0 0 0 0 0 0 0 0 0 0 0 0 0 0
0 0 0 0 0 0 0 0 0 0 0 0 0 0 0 0 0 0 0 0 0 0 0 0 0 0 0 0 0 0 0 0 0 0 0 0 0 0 0 0 0 0 0
0 0 0 0 0 0 0 0 0 0 0 0 0 0 0 0 0 0 0 0 0 0 0 0 0 0 0 0 0 0 0 0 0 0 0 0 0 0 0 0 0 0 0
0 0 0 0 0 0 0 0 0 0 0 0 0 0 0 0 0 0 0 0 0 0 0 0 0 0 0 0 0 0 0 0 0 0 0 0 0 0 0 0 0 0 0
0 0 0 0 0 0 0 0 0 0 0 0 0 0 0 0 0 0 0 0 0 0 0 0 0 0 0 0 0 0 0 0 0 0 0 0 0 0 0 0 0 0 0
0 0 0 0 0 0 0 0 0 0 0 0 0 0 0 0 0 0 0 0 0 0 0 0 0 0 0 0 0 0 0 -0 -0 0 0 0 0 0 0 0 0 0 0
0 0 0 0 0 0 0 0 0 0 0 0 0 0 0 0 0 0 0 0 0 0 0 0 0 0 0 0 0 0 0 -0 -0 -0 0 0 0 0 0 0 0 0 0
0 0 0 0 0 0 0 0 0 0 0 0 0 0 0 0 0 0 0 0 0 0 0 0 0 0 0 0 0 0 0 -0 -0 -0 0 0 0 0 0 0 0 0 0
0 0 0 0 0 0 0 0 0 0 0 0 0 0 0 0 0 0 0 0 -0 -0 -0 0 0 0 0 0 0 0 0 0 0 0 0 0 0 0 0 0 0 0 0
0 0 0 0 0 0 0 0 0 0 0 0 0 0 0 0 0 0 0 0 -0 -0 -0 0 0 0 0 0 0 0 0 0 0 0 0 0 0 0 0 0 0 0 0
0 0 0 0 0 0 0 0 0 0 0 0 0 0 0 0 0 0 0 0 0 -0 -0 0 0 0 0 0 0 0 0 0 0 0 0 0 0 0 0 0 0 0 0
Wind_Speed
2 2 2 3 3 3 3 3 4 4 5 5 5 6 6 6 5 5 4 11 12 11 11 11 11 10 10 9 8 8 7 6 6 5 4 4 4 4 4 4 4 4 4
2 2 3 3 3 3 3 3 4 4 4 4 6 6 6 5 6 6 5 8 13 13 13 13 12 12 11 11 10 9 9 8 7 6 5 4 4 4 4 4 4 4 5
3 3 2 3 2 2 3 4 4 4 5 5 6 6 5 6 6 6 6 5 6 12 14 13 12 12 12 12 12 11 10 10 9 8 7 5 5 5 5 5 5 5 5
3 3 3 2 2 2 3 4 4 4 4 4 4 4 5 5 6 6 6 6 5 6 9 14 13 13 13 13 13 13 12 11 9 9 8 7 7 6 5 5 5 6 6
3 3 3 2 3 3 3 3 4 3 4 4 5 5 5 5 5 6 6 7 6 6 6 10 14 15 14 14 14 13 12 11 11 10 9 7 7 6 6 7 7 7 7
4 3 3 3 3 3 3 4 4 4 3 4 6 6 5 5 5 6 5 5 5 7 7 7 7 9 15 15 15 14 13 11 11 11 10 9 8 7 7 7 7 7 8
4 4 3 3 3 3 3 3 3 5 4 2 4 4 4 5 6 5 5 5 6 6 7 7 6 6 6 14 15 15 15 13 13 12 12 12 10 9 9 8 8 9 9
3 3 4 3 3 3 4 3 3 3 2 3 2 3 3 4 5 6 5 5 6 5 6 8 7 7 6 5 10 16 15 14 14 13 14 14 13 12 11 10 10 10 9
3 3 3 3 3 3 3 2 2 3 2 2 2 3 3 1 1 3 5 5 6 5 5 5 7 7 7 6 6 11 14 14 14 14 15 15 14 13 13 12 11 10 10
4 4 3 4 3 3 3 2 2 2 3 2 2 3 2 3 3 1 3 4 5 6 6 6 6 7 7 6 7 12 14 14 15 15 15 15 15 14 13 12 12 11 11
3 4 4 4 3 3 3 3 3 3 2 2 2 1 3 3 3 3 1 2 3 4 4 5 5 5 6 6 5 10 14 14 15 15 15 15 15 14 13 13 13 12 12
2 3 3 3 3 3 3 3 3 4 3 3 3 2 2 2 1 2 2 0 1 3 3 4 5 5 5 5 8 12 14 14 14 15 15 15 15 15 14 13 13 13 13
1 1 2 2 2 2 3 3 4 3 3 3 3 2 2 2 2 2 3 2 1 2 3 3 3 4 5 4 5 11 11 13 13 14 14 14 14 15 14 14 14 14 14
2 2 2 3 3 3 3 4 3 3 3 3 4 3 2 2 2 2 3 3 2 2 3 3 3 4 4 4 6 8 6 12 12 12 13 13 13 13 14 14 14 14 14
2 3 3 3 3 3 4 4 3 3 3 3 3 3 3 2 2 2 2 2 4 2 2 3 3 4 4 3 6 5 4 10 11 11 11 11 12 12 12 12 13 13 13
3 4 3 3 3 3 4 4 3 3 4 3 2 4 3 2 2 2 2 2 2 3 2 1 2 2 3 4 7 5 5 9 11 11 11 10 10 11 11 11 11 11 12
3 4 3 4 3 3 3 4 3 3 4 3 3 3 3 2 2 2 2 3 2 3 3 1 1 2 3 4 4 4 4 4 5 10 10 10 10 10 10 10 10 11 11
3 3 4 4 4 3 3 4 4 3 3 3 2 3 2 2 3 2 2 3 2 2 3 1 2 2 3 3 3 4 4 4 3 8 10 10 10 10 10 10 10 10 11
4 3 4 4 4 4 4 3 4 3 3 2 2 2 2 3 3 2 2 2 2 2 2 2 1 1 2 2 3 3 4 3 4 6 7 9 9 10 9 9 9 9 10
4 4 4 4 4 4 4 4 4 4 3 2 2 2 2 3 3 3 2 2 2 3 3 2 1 1 1 2 2 2 3 3 4 4 5 6 8 9 9 9 9 9 9
4 4 4 4 3 3 4 4 4 4 3 3 2 2 2 3 4 3 3 2 3 3 2 2 1 1 1 2 2 1 2 3 3 3 3 4 4 4 5 7 8 9 9
4 4 4 4 4 3 6 7 6 4 3 3 2 2 2 2 3 4 5 5 5 4 2 2 0 0 1 1 1 1 1 2 3 3 3 4 3 4 4 3 7 9 10
4 4 4 4 3 3 6 7 7 4 4 3 3 2 2 3 3 3 4 4 3 3 3 3 2 2 2 2 1 1 1 1 2 3 2 3 3 4 4 5 9 10 10
4 4 4 4 3 4 6 7 7 5 3 3 2 2 2 1 2 3 3 3 2 1 1 1 2 2 2 2 2 2 2 1 2 2 1 2 3 3 4 4 9 9 10
4 3 3 4 4 4 6 7 7 4 3 2 2 2 3 2 4 5 4 2 1 1 1 1 1 1 1 1 1 1 1 1 2 3 1 1 3 4 4 4 5 9 10
4 4 3 3 4 3 5 7 7 3 3 2 1 1 3 3 4 5 4 3 2 1 1 2 2 3 3 2 2 1 1 1 1 3 2 1 2 3 4 3 3 4 6
Wind_Direction
51 41 32 32 32 39 56 59 61 64 65 62 62 63 54 48 46 40 29 45 51 51 51 49 49 50 49 45 40 38 39 38 34 36 38 39 49 46 47 52 47 43 37
67 58 44 37 34 41 55 68 70 73 67 67 63 59 55 49 48 44 36 37 42 45 46 47 45 44 45 44 41 39 38 37 35 35 38 43 53 55 54 48 42 38 32
74 74 62 47 36 45 63 69 66 70 73 68 59 53 53 49 50 45 40 36 33 40 43 44 43 42 42 42 42 40 39 38 38 39 42 51 57 58 57 50 38 36 33
77 77 69 52 44 57 67 75 68 71 68 68 62 49 47 46 45 45 44 39 34 32 33 40 41 42 40 40 40 39 39 40 44 45 48 55 57 55 53 49 44 46 42
70 77 71 55 56 64 62 78 68 78 79 76 72 56 44 44 41 45 45 41 38 37 32 34 38 39 37 36 36 36 37 41 44 45 49 54 59 58 56 54 52 51 46
67 74 71 55 60 72 62 67 78 67 74 82 80 63 46 42 42 40 37 38 39 40 38 34 28 29 35 35 34 32 34 40 46 46 46 48 59 65 61 57 54 54 51
66 71 71 59 60 75 77 81 83 75 60 60 79 60 39 41 45 35 31 37 36 37 39 37 32 27 22 28 30 32 34 40 46 46 44 44 53 65 65 60 56 54 51
60 75 77 74 68 79 73 70 82 86 57 38 90 90 44 14 18 26 29 36 30 30 37 37 33 31 25 18 21 30 35 40 46 46 46 46 53 58 59 56 54 53 51
61 70 78 79 71 80 89 79 88 104 104 42 53 116 123 153 357 2 22 30 27 31 27 27 32 27 24 18 13 21 33 37 43 46 47 48 51 53 52 52 52 51 48
61 64 73 75 74 73 81 79 76 87 109 92 50 49 91 138 129 41 356 10 24 32 25 25 24 23 21 17 19 27 35 38 41 44 45 47 48 50 50 48 49 48 46
53 61 68 72 71 69 73 74 74 74 85 105 98 83 70 63 81 120 73 349 8 13 20 20 22 19 16 16 16 29 37 39 41 42 42 42 43 44 44 43 43 42 40
44 52 72 73 74 71 70 74 78 80 78 86 86 87 107 108 115 117 130 80 7 345 3 18 22 14 15 18 23 32 39 40 42 43 43 40 39 39 39 39 39 38 37
69 55 77 82 80 78 77 75 75 71 74 83 85 81 84 95 128 126 122 122 58 349 355 6 11 11 16 16 18 28 36 42 43 45 44 42 40 39 38 37 36 35 33
151 131 113 98 91 87 84 77 72 67 70 75 75 75 74 63 85 114 134 133 92 20 15 350 341 5 4 9 15 25 31 41 42 42 42 41 41 40 38 37 35 33 30
135 123 116 106 94 90 90 88 76 66 72 68 71 73 70 52 59 71 100 125 133 116 359 335 340 341 350 10 18 22 24 36 38 38 37 36 37 37 37 34 32 30 27
126 124 117 111 102 95 94 92 80 71 77 63 69 76 67 52 57 61 75 77 102 133 137 311 314 323 344 17 26 21 24 35 32 32 33 33 34 33 32 30 28 26 23
138 135 133 125 116 108 104 101 95 88 84 70 65 80 71 66 69 59 66 74 74 102 124 318 333 337 5 11 7 11 19 22 19 29 29 31 31 29 27 24 22 21 18
143 139 133 126 125 119 115 116 116 105 105 99 84 82 71 80 73 65 76 78 78 87 125 125 342 350 359 357 0 8 11 16 13 22 28 29 27 26 24 20 18 16 11
142 135 133 135 134 132 126 124 121 114 112 112 109 111 108 99 87 76 79 79 72 74 84 114 17 346 347 356 3 1 3 356 3 11 20 21 19 16 15 12 9 6 3
149 145 141 139 137 134 131 129 123 120 115 103 99 110 115 124 128 117 97 95 94 85 80 85 53 357 341 335 10 359 354 353 353 359 7 6 5 4 3 1 359 357 357
151 146 135 131 130 136 147 145 140 136 130 111 83 81 102 116 119 119 117 127 117 106 97 87 57 18 345 344 334 320 334 329 332 353 345 343 344 344 344 347 350 349 349
139 136 138 142 147 157 155 156 149 138 133 129 117 83 76 75 87 97 108 117 127 132 139 131 127 195 277 269 286 314 323 350 331 336 341 323 340 329 323 325 340 342 343
141 138 144 145 153 162 158 154 153 139 137 138 137 124 104 94 89 89 84 78 80 107 141 156 167 222 234 235 220 301 278 253 268 303 329 308 320 314 312 329 336 337 338
146 149 151 154 152 167 161 151 146 137 130 134 145 152 145 137 126 123 108 84 64 50 100 160 185 223 226 213 199 210 228 268 284 300 320 293 307 300 308 311 326 334 338
150 153 154 158 161 175 167 157 144 135 135 150 166 162 160 166 155 134 120 113 55 339 26 88 96 18 351 354 82 82 28 8 321 308 314 285 301 307 301 294 313 331 335
154 147 146 162 167 176 172 165 154 143 148 162 165 173 180 179 169 150 146 150 165 262 3 26 18 6 357 358 16 141 193 214 287 299 296 292 301 324 314 293 299 313 320